Location: Cedar Brake
(32.2526°N, 97.8459°W)
Time: 20:05:13
(UTC+00:00)

OAO 2 Rocket - Pass Details

Date: 22 April 2026
Orbit: 668 x 733 km, 35.0° (Epoch: 21 May)

Event Time Altitude Azimuth Distance (km) Brightness Sun altitude
Rises 02:17:42 0° 268° (W) 3,125 7.8 -15.2°
Reaches altitude 10° 02:20:10 10° 271° (W) 2,196 6.9 -15.7°
Maximum altitude 02:25:18 66° 354° (N) 770 3.6 -16.6°
Enters shadow 02:28:42 21° 73° (ENE) 1,566 4.7 -17.3°
